This demonstration page uses our WeatherBlox Daily Observations layout. Learn more.

Left ArrowRight Arrow

Hourly Observations for October 25, 2015

Temp ( °F °C ) Dew Point ( °F °C ) Humidity (%) Winds ( mph kmh ) Pressure ( in mb ) Visibility ( mi km ) Precip ( " mm )
12:53 am 00:53 Mostly Cloudy with Light Rain 58 14.4 52 11.1 81 81 WNW 6 9 30.09 1019 10 16 0.00 0.03
1:53 am 01:53 Cloudy 57 13.9 52 11.1 83 83 W 3 6 30.10 1019 10 16 0.00 0.03
2:53 am 02:53 Cloudy with Light Rain 57 13.9 52 11.1 83 83 WNW 9 15 30.12 1020 10 16 0.00 0.03
3:39 am 03:39 Cloudy with Light Rain 57 13.9 52 11.1 83 83 WNW 13 20 30.15 1021 10 16 0.00 0.03
3:53 am 03:53 Cloudy with Light Rain 57 13.9 51 10.6 81 81 WNW 9 15 30.15 1021 10 16 0.00 0.03
4:08 am 04:08 Cloudy with Light Rain 56 13.3 51 10.6 84 84 NW 8 13 30.15 1021 10 16 0.00 0.03
4:33 am 04:33 Cloudy with Light Rain 56 13.3 51 10.6 84 84 WNW 7 11 30.18 1022 10 16 0.00 0.03
4:53 am 04:53 Cloudy with Light Rain 56 13.3 51 10.6 84 84 WNW 8 13 30.17 1022 10 16 0.00 0.03
5:53 am 05:53 Cloudy with Light Rain 56 13.3 50 10 81 81 NNW 6 9 30.20 1023 10 16 0.00 0.03
6:13 am 06:13 Cloudy with Light Rain 55 12.8 50 10 83 83 NNW 7 11 30.21 1023 10 16 0.00 0.03
6:53 am 06:53 Cloudy with Light Rain 54 12.2 48 8.9 80 80 NNW 9 15 30.23 1024 10 16 0.00 0.03
7:53 am 07:53 Mostly Clear 52 11.1 46 7.8 80 80 NNW 7 11 30.25 1025 10 16 0.00 0.03
8:13 am 08:13 Mostly Cloudy 52 11.1 47 8.3 83 83 NNW 6 9 30.27 1025 10 16 0.00 0.00
8:37 am 08:37 Partly Cloudy 52 11.1 47 8.3 83 83 NNW 5 7 30.27 1025 10 16 0.00 0.00
8:50 am 08:50 Mostly Cloudy 54 12 46 8 77 77 NNW 6 9 30.27 1025 10 16 0.00 0.00
8:53 am 08:53 Mostly Cloudy 53 11.7 47 8.3 80 80 N 5 7 30.27 1025 10 16 0.00 0.00
9:42 am 09:42 Partly Cloudy 54 12.2 47 8.3 77 77 N 8 13 30.30 1026 10 16 0.00 0.03
9:53 am 09:53 Partly Cloudy with Light Rain 55 12.8 47 8.3 74 74 N 8 13 30.31 1027 10 16 0.00 0.03
10:53 am 10:53 Mostly Cloudy with Light Rain 56 13.3 47 8.3 72 72 NNE 10 17 30.33 1027 10 16 0.00 0.03
11:53 am 11:53 Cloudy with Light Rain 57 13.9 45 7.2 64 64 N 6 9 30.33 1027 10 16 0.00 0.03
12:53 pm 12:53 Partly Cloudy with Light Rain 57 13.9 42 5.6 58 58 NE 6 9 30.33 1027 10 16 0.00 0.03
1:53 pm 13:53 Partly Cloudy with Light Rain 59 15 42 5.6 54 54 NNE 9 15 30.32 1027 10 16 0.00 0.03
2:53 pm 14:53 Partly Cloudy with Light Rain 60 15.6 42 5.6 52 52 N 9 15 30.30 1026 10 16 0.00 0.03
3:53 pm 15:53 Sunny with Light Rain 60 15.6 40 4.4 47 47 N 7 11 30.29 1026 10 16 0.00 0.03
4:53 pm 16:53 Sunny 60 15.6 40 4.4 47 47 E 5 7 30.30 1026 10 16 0.00 0.03
5:53 pm 17:53 Sunny 58 14.4 41 5 53 53 ENE 3 6 30.32 1027 10 16 0.00 0.00
6:53 pm 18:53 Clear 50 10 44 6.7 80 80 Calm 30.32 1027 10 16 0.00 0.00
7:53 pm 19:53 Clear 52 11.1 40 4.4 64 64 NNE 5 7 30.34 1027 10 16 0.00 0.00
8:53 pm 20:53 Clear 45 7.2 41 5 86 86 Calm 30.35 1028 10 16 0.00 0.00
9:53 pm 21:53 Clear 43 6.1 40 4.4 89 89 Calm 30.35 1028 10 16 0.00 0.00
10:53 pm 22:53 Clear 42 5.6 39 3.9 89 89 Calm 30.36 1028 10 16 0.00 0.00
11:53 pm 23:53 Clear 40 4.4 38 3.3 93 93 Calm 30.37 1029 10 16 0.00 0.00

Powered by AerisWeather